This demonstration page uses our WeatherBlox Daily Observations layout. Learn more.

Hourly Observations for February 11, 2019

Temp ( °F °C ) Dew Point ( °F °C ) Humidity (%) Winds ( mph kmh ) Pressure ( in mb ) Visibility ( mi km ) Precip ( " mm )
12:54 am 00:54 Cloudy 28 -2.2 23 -5 81 81 E 10 17 30.15 1021 9 14.48406 0 0
1:54 am 01:54 Cloudy 27 -2.8 23 -5 85 85 E 12 19 30.13 1020 9 14.48406 0 0
2:32 am 02:32 Cloudy 27 -2.8 23 -5 85 85 E 10 17 30.16 1021 8 12.87472 0 0
2:54 am 02:54 Cloudy 27 -2.8 23 -5 85 85 E 7 11 30.13 1020 7 11.26538 0 0
3:54 am 03:54 Cloudy with Mist and Fog 27 -2.8 24 -4.4 89 89 ENE 10 17 30.07 1018 6 9.65604 0 0
4:54 am 04:54 Cloudy with Mist and Fog 26 -3.3 24 -4.4 92 92 E 8 13 30.05 1018 5 8.0467 0 0
5:02 am 05:02 Cloudy with Mist and Fog 26 -3.3 24 -4.4 92 92 ENE 12 19 30.1 1019 5 8.0467 0 0
5:54 am 05:54 Cloudy with Mist and Fog 27 -2.8 25 -3.9 92 92 ENE 9 15 30.04 1017 3 4.82802 0 0
6:05 am 06:05 Cloudy with Mist and Fog 27 -2.8 25 -3.9 92 92 ENE 10 17 30.07 1018 2.5 4.02335 0 0
6:44 am 06:44 Cloudy with Mist and Fog 27 -2.8 25 -3.9 92 92 E 13 20 30.06 1018 3 4.82802 0 0
6:54 am 06:54 Cloudy with Mist and Fog 27 -2.8 25 -3.9 92 92 E 13 20 30.03 1017 3 4.82802 0 0
7:47 am 07:47 Cloudy with Mist and Fog 27 -2.8 25 -3.9 92 92 E 14 22 30.02 1017 2.5 4.02335 0 0
7:54 am 07:54 Cloudy with Mist and Fog 27 -2.8 25 -3.9 92 92 E 16 26 29.99 1016 2.5 4.02335 0 0
8:54 am 08:54 Cloudy with Mist and Fog 27 -2.8 25 -3.9 92 92 E 14 22 29.99 1016 2 3.21868 0 0
9:54 am 09:54 Cloudy with Mist and Fog 26 -3.3 25 -3.9 96 96 ENE 15 24 29.98 1015 2 3.21868 0 0
10:01 am 10:01 Cloudy with Mist and Fog 26 -3.3 25 -3.9 96 96 E 14 22 30.02 1016 1.25 2.011675 0 0
10:54 am 10:54 Cloudy with Mist and Fog 26 -3.3 24 -4.4 92 92 E 16 26 29.96 1015 1 1.60934 0 0
11:38 am 11:38 Cloudy with Light Snow 26 -3.3 24 -4.4 92 92 ENE 13 20 29.99 1015 2 3.21868 0.01 0.254
11:54 am 11:54 Cloudy with Light Snow 26 -3.3 24 -4.4 92 92 E 12 19 29.95 1014 2 3.21868 0.01 0.254
12:08 pm 12:08 Cloudy with Light Snow 26 -3.3 24 -4.4 92 92 ENE 13 20 29.99 1015 3 4.82802 0 0.0254
12:17 pm 12:17 Cloudy with Light Snow 26 -3.3 23 -5 88 88 E 12 19 29.98 1015 2.5 4.02335 0 0.0254
12:31 pm 12:31 Cloudy with Light Snow 26 -3.3 23 -5 88 88 E 13 20 29.98 1015 1.25 2.011675 0 0.0254
12:52 pm 12:52 Cloudy with Light Snow 27 -3 25 -4 93 93 ENE 9 15 29.96 1015 1.25 2.011675 0.01 0.254
12:54 pm 12:54 Cloudy with Light Snow 26 -3.3 24 -4.4 92 92 ENE 12 19 29.93 1014 1 1.60934 0.01 0.254
12:58 pm 12:58 Cloudy with Light Snow 26 -3.3 23 -5 88 88 ENE 14 22 29.97 1015 0.75 1.207005 0 0.0254
1:03 pm 13:03 Cloudy with Snow 26 -3.3 23 -5 88 88 ENE 13 20 29.97 1015 0.25 0.402335 0.01 0.254
1:12 pm 13:12 Cloudy with Light Snow 26 -3.3 24 -4.4 92 92 ENE 12 19 29.96 1014 0.5 0.80467 0.01 0.254
1:24 pm 13:24 Cloudy with Light Snow 26 -3.3 24 -4.4 92 92 ENE 10 17 29.96 1014 1.25 2.011675 0.01 0.254
1:31 pm 13:31 Cloudy with Light Snow 26 -3.3 24 -4.4 92 92 ENE 10 17 29.95 1014 1.25 2.011675 0.01 0.254
1:46 pm 13:46 Cloudy with Mist and Fog 26 -3.3 23 -5 88 88 ENE 12 19 29.95 1014 3 4.82802 0.01 0.254
1:54 pm 13:54 Cloudy with Mist and Fog 26 -3.3 23 -5 88 88 ENE 12 19 29.9 1013 4 6.43736 0.02 0.508
2:09 pm 14:09 Cloudy with Light Snow 26 -3.3 23 -5 88 88 NE 12 19 29.93 1013 5 8.0467 0 0.0254
2:20 pm 14:20 Cloudy with Light Snow 26 -3.3 23 -5 88 88 ENE 13 20 29.93 1013 2.5 4.02335 0 0.0254
2:28 pm 14:28 Cloudy with Light Snow 26 -3.3 23 -5 88 88 ENE 10 17 29.93 1013 1 1.60934 0 0.0254
2:35 pm 14:35 Cloudy with Light Snow 26 -3.3 23 -5 88 88 NE 12 19 29.93 1013 0.75 1.207005 0 0.0254
2:41 pm 14:41 Cloudy with Light Snow 27 -2.8 24 -4.4 89 89 ENE 9 15 29.92 1013 1.5 2.41401 0 0.0254
2:48 pm 14:48 Cloudy with Light Snow 27 -3 23 -5 86 86 NE 12 19 29.92 1013 3 4.82802 0 0.0254
2:54 pm 14:54 Cloudy with Light Snow 26 -3.3 23 -5 88 88 NE 12 19 29.88 1012 4 6.43736 0 0.0254
3:06 pm 15:06 Cloudy with Mist and Fog 27 -2.8 24 -4.4 89 89 ENE 9 15 29.92 1013 3 4.82802 0 0.0254
3:16 pm 15:16 Cloudy with Light Snow 27 -2.8 24 -4.4 89 89 ENE 10 17 29.91 1013 2 3.21868 0 0.0254
3:27 pm 15:27 Cloudy with Mist and Fog 27 -2.8 24 -4.4 89 89 NE 10 17 29.91 1013 2.5 4.02335 0 0.0254
3:34 pm 15:34 Cloudy with Mist and Fog 27 -2.8 24 -4.4 89 89 ENE 10 17 29.91 1013 2.5 4.02335 0 0.0254
3:42 pm 15:42 Cloudy with Mist and Fog 27 -2.8 24 -4.4 89 89 ENE 9 15 29.92 1013 3 4.82802 0 0.0254
3:54 pm 15:54 Cloudy with Mist and Fog 27 -2.8 24 -4.4 89 89 NE 10 17 29.89 1012 4 6.43736 0 0.0254
4:11 pm 16:11 Cloudy with Mist and Fog 27 -2.8 24 -4.4 89 89 NE 8 13 29.92 1013 2.5 4.02335 0 0
4:30 pm 16:30 Cloudy with Mist and Fog 27 -2.8 24 -4.4 89 89 NE 12 19 29.93 1014 2 3.21868 0 0
4:34 pm 16:34 Cloudy with Light Freezing Rain 26 -3.3 24 -4.4 92 92 NE 10 17 29.94 1014 1.75 2.816345 0 0.0254
4:49 pm 16:49 Cloudy with Mist and Fog 27 -3 25 -4 93 93 NE 9 15 29.93 1014 1.5 2.41401 0 0.0254
4:54 pm 16:54 Cloudy with Mist and Fog 26 -3.3 24 -4.4 92 92 NE 9 15 29.9 1013 1.5 2.41401 0 0.0254
5:54 pm 17:54 Cloudy with Mist and Fog 26 -3.3 24 -4.4 92 92 NNE 9 15 29.9 1013 2 3.21868 0 0
6:07 pm 18:07 Cloudy with Mist and Fog 26 -3.3 24 -4.4 92 92 N 10 17 29.95 1014 3 4.82802 0 0
6:21 pm 18:21 Cloudy with Mist and Fog 26 -3.3 24 -4.4 92 92 N 10 17 29.95 1014 2.5 4.02335 0 0
6:47 pm 18:47 Cloudy with Light Snow 26 -3.3 24 -4.4 92 92 N 9 15 29.95 1014 1.75 2.816345 0 0.0254
6:54 pm 18:54 Cloudy with Light Snow 26 -3.3 24 -4.4 92 92 N 10 17 29.91 1013 2 3.21868 0 0.0254
7:00 pm 19:00 Cloudy with Light Snow 26 -3.3 23 -5 88 88 N 9 15 29.96 1014 2 3.21868 0 0.0254
7:09 pm 19:09 Cloudy with Light Snow 26 -3.3 24 -4.4 92 92 N 10 17 29.96 1014 1.5 2.41401 0 0.0254
7:17 pm 19:17 Cloudy with Light Snow 26 -3.3 24 -4.4 92 92 N 9 15 29.96 1014 1.5 2.41401 0.01 0.254
7:28 pm 19:28 Cloudy with Light Snow 26 -3.3 23 -5 88 88 N 10 17 29.96 1014 2 3.21868 0.01 0.254
7:41 pm 19:41 Cloudy with Light Snow 26 -3.3 23 -5 88 88 N 9 15 29.96 1014 3 4.82802 0.01 0.254
7:54 pm 19:54 Cloudy with Mist and Fog 26 -3.3 23 -5 88 88 N 13 20 29.93 1014 4 6.43736 0.01 0.254
8:01 pm 20:01 Cloudy with Mist and Fog 26 -3.3 23 -5 88 88 N 13 20 29.97 1015 4 6.43736 0 0
8:54 pm 20:54 Cloudy with Mist and Fog 26 -3.3 23 -5 88 88 N 14 22 29.93 1014 5 8.0467 0 0
9:54 pm 21:54 Cloudy with Mist and Fog 26 -3.3 23 -5 88 88 NNW 10 17 29.96 1015 5 8.0467 0 0
10:39 pm 22:39 Cloudy with Mist and Fog 26 -3.3 23 -5 88 88 NNW 8 13 30 1016 5 8.0467 0 0
10:54 pm 22:54 Cloudy with Mist and Fog 26 -3.3 23 -5 88 88 NNW 9 15 29.95 1014 5 8.0467 0 0
11:22 pm 23:22 Cloudy with Mist and Fog 26 -3.3 23 -5 88 88 NW 10 17 29.99 1015 6 9.65604 0 0
11:54 pm 23:54 Cloudy with Mist and Fog 26 -3.3 22 -5.6 84 84 NNW 14 22 29.96 1015 6 9.65604 0 0

Powered by AerisWeather